Simultaneous Nadir Overpasses (SNOs) Predictions

Prediction of SNOs between AQUA and METOP-B Satellite Orbit:

Table of predicted SNOs for the next 14.0 days since TLE Epoch: 9/22/2017
Index Date (AQUA) Time (AQUA) Lat,Lon (AQUA) SZA (AQUA ) Date (METOP-B) Time (METOP-B) Lat,Lon (METOP-B) SZA (METOP-B ) Distance(km) Time Diff (sec)
1 09/25/2017 06:08:09 -73.74, -97.69 105.38 09/25/2017 06:07:08 -73.73, -97.80 105.38 3.50 61
2 09/25/2017 06:57:39 73.84, 69.72 74.75 09/25/2017 06:57:45 73.85, 69.83 74.76 3.49 6
3 09/25/2017 07:47:11 -74.20,-123.44 104.87 09/25/2017 07:48:21 -74.15,-122.11 104.94 40.88 70
4 09/28/2017 01:42:26 -73.77, -31.32 104.26 09/28/2017 01:41:30 -73.79, -31.25 104.23 3.06 56
5 09/28/2017 02:31:55 73.82, 136.19 75.82 09/28/2017 02:32:09 73.81, 136.13 75.81 2.39 14
6 09/28/2017 03:21:32 -74.43, -57.57 103.53 09/28/2017 03:22:39 -74.41, -55.05 103.61 75.20 67
7 09/30/2017 21:16:41 -73.75, 35.14 103.18 09/30/2017 21:15:53 -73.74, 35.05 103.19 3.00 48
8 09/30/2017 22:06:10 73.82,-157.36 76.90 09/30/2017 22:06:31 73.81,-157.44 76.90 2.70 21
9 10/03/2017 16:50:58 -73.80, 101.48 102.05 10/03/2017 16:50:15 -73.80, 101.59 102.05 3.44 43
10 10/03/2017 17:40:26 73.81, -90.92 77.98 10/03/2017 17:40:54 73.82, -91.03 77.99 3.34 28
11 10/06/2017 12:25:14 -73.80, 167.91 100.97 10/06/2017 12:24:38 -73.80, 168.00 100.97 2.77 36
12 10/06/2017 13:14:42 73.82, -24.50 79.07 10/06/2017 13:15:17 73.82, -24.61 79.07 3.54 35




NCC Satellite Simultaneous Nadir Overpasses (SNOs) Prediction Service
